Location: Maiden
(35.5760°N, 81.2120°W)
Time: 02:33:10
(UTC-04:00)

A-11 Canister half - Pass Details

Date: 07 August 2020
Orbit: 1527 x 1682 km, 47.3° (Epoch: 25 September)

Event Time Altitude Azimuth Distance (km) Brightness Sun altitude
Rises 20:02:53 0° 304° (WNW) 4,914 13.5 2.9°
Reaches altitude 10° 20:06:04 10° 304° (NW) 3,910 12.9 2.3°
Maximum altitude 20:16:06 88° 217° (SW) 1,626 9.3 0.4°
Drops below altitude 10° 20:25:47 10° 128° (SE) 3,778 10.5 -1.5°
Enters shadow 20:28:44 - 128° (SE) 4,719 10.9 -2.0°
Sets 20:28:48 0° 128° (SE) 4,741 - -2.0°
